EW7939 Weather Reports


Display with metric or nautical units.
time (UTC)temp
F
wind
direction
speed
MPH
gust
MPH
rain 1hr
in
rain 24hr
in
rain mn
in
humidity
%
barometer
mb
20260510163109 67 47 2.0 8.0 0.00 0.01 0.00 38 1019.8
20260510161555 66 279 4.0 7.0 0.00 0.01 0.00 35 1019.5
20260510160051 65 83 3.0 12.0 0.00 0.01 0.00 37 1019.4
20260510154551 65 63 3.0 10.0 0.00 0.01 0.00 37 1019.4
20260510153049 64 101 2.0 11.0 0.00 0.01 0.00 40 1019.3
20260510151545 63 132 2.0 9.0 0.00 0.01 0.00 43 1019.3
20260510150048 62 259 3.0 9.0 0.00 0.01 0.00 44 1019.3
20260510144540 61 281 2.0 9.0 0.00 0.01 0.00 46 1019.3
20260510143032 59 71 2.0 6.0 0.00 0.01 0.00 54 1019.2
20260510141533 57 85 0.0 2.0 0.00 0.01 0.00 56 1019.1
20260510140028 56 344 1.0 4.0 0.00 0.01 0.00 53 1019.0
20260510134527 56 81 1.0 7.0 0.00 0.01 0.00 54 1018.8
20260510133026 55 187 0.0 4.0 0.00 0.01 0.00 57 1018.8
20260510131522 54 349 1.0 7.0 0.00 0.01 0.00 58 1018.5
20260510130019 53 125 1.0 4.0 0.00 0.01 0.00 60 1018.1
20260510124516 51 63 1.0 4.0 0.00 0.01 0.00 61 1017.6
20260510123015 50 203 0.0 5.0 0.00 0.01 0.00 64 1017.5
20260510121514 50 24 1.0 5.0 0.00 0.01 0.00 64 1017.3
20260510120012 50 19 0.0 3.0 0.00 0.01 0.00 62 1017.2
20260510114510 50 44 1.0 4.0 0.00 0.01 0.00 61 1016.9
20260510113006 50 78 0.0 4.0 0.00 0.01 0.00 60 1016.7
20260510111504 51 224 0.0 2.0 0.00 0.01 0.00 60 1016.4
20260510110001 51 43 0.0 5.0 0.00 0.01 0.00 59 1016.2
20260510104559 51 25 1.0 6.0 0.00 0.01 0.00 61 1016.0
20260510103056 51 22 0.0 5.0 0.00 0.01 0.00 62 1015.5
20260510101603 52 336 2.0 8.0 0.00 0.01 0.00 63 1015.4
20260510100055 52 45 0.0 4.0 0.00 0.01 0.00 64 1015.4
20260510094552 52 290 1.0 9.0 0.00 0.02 0.00 66 1015.1
20260510093046 53 5 1.0 2.0 0.00 0.02 0.00 68 1015.0
20260510091543 54 5 0.0 3.0 0.00 0.02 0.00 68 1015.0
20260510090041 54 59 1.0 4.0 0.00 0.02 0.00 67 1014.8
20260510084539 54 315 0.0 1.0 0.00 0.02 0.00 68 1014.6
20260510083035 54 54 0.0 3.0 0.00 0.02 0.00 68 1014.1
20260510081540 55 66 0.0 3.0 0.00 0.02 0.00 70 1013.7
20260510080049 55 32 0.0 2.0 0.00 0.02 0.00 69 1013.7
20260510074528 56 69 0.0 2.0 0.00 0.02 0.00 68 1013.4
20260510073037 56 69 0.0 5.0 0.00 0.02 0.00 70 1013.2
20260510071523 57 275 0.0 3.0 0.00 0.02 0.00 71 1013.3
20260510070022 58 182 0.0 0.0 0.00 0.02 0.00 70 1013.3
20260510064521 58 182 1.0 3.0 0.00 0.02 0.00 70 1013.4
20260510063019 58 90 0.0 3.0 0.00 0.02 0.00 70 1013.0
20260510061516 57 86 0.0 3.0 0.00 0.02 0.00 70 1012.7
20260510060024 57 142 1.0 3.0 0.00 0.02 0.00 72 1012.2
20260510054516 57 101 0.0 3.0 0.00 0.02 0.00 72 1012.1
20260510053008 58 121 0.0 4.0 0.00 0.02 0.00 72 1011.8
20260510051506 58 105 0.0 0.0 0.00 0.02 0.00 69 1011.3
20260510050001 59 105 0.0 0.0 0.00 0.02 0.00 68 1011.4
20260510044556 60 105 0.0 0.0 0.00 0.02 0.02 67 1011.1
20260510043053 60 105 0.0 0.0 0.00 0.02 0.02 66 1011.0
20260510041551 61 105 0.0 1.0 0.00 0.02 0.02 66 1010.7
20260510040045 61 108 1.0 4.0 0.00 0.02 0.02 66 1010.4
20260510034539 62 69 1.0 5.0 0.00 0.02 0.02 65 1010.3
20260510033045 62 88 1.0 5.0 0.00 0.02 0.02 65 1010.3
20260510031532 62 67 3.0 6.0 0.00 0.02 0.02 65 1010.0
20260510030026 62 105 2.0 6.0 0.00 0.02 0.02 65 1009.8
20260510024523 63 130 2.0 4.0 0.00 0.02 0.02 67 1009.8
20260510023019 64 55 1.0 3.0 0.00 0.02 0.02 67 1009.4
20260510021532 64 288 1.0 3.0 0.00 0.02 0.02 67 1009.1
20260510020009 64 293 1.0 3.0 0.00 0.02 0.02 67 1008.4
20260510014507 64 314 0.0 3.0 0.00 0.02 0.02 66 1007.9
20260510013002 64 45 0.0 3.0 0.00 0.02 0.02 68 1007.4
20260510011501 64 36 1.0 7.0 0.00 0.02 0.02 69 1007.2
20260510004601 64 291 0.0 8.0 0.00 0.02 0.02 71 1006.7
20260510003103 65 42 4.0 9.0 0.01 0.02 0.02 72 1006.4
20260510001553 65 55 2.0 9.0 0.01 0.02 0.02 70 1006.7
20260510000049 67 315 3.0 11.0 0.01 0.02 0.02 68 1006.7
20260509234543 71 86 3.0 12.0 0.01 0.02 0.02 61 1006.6
20260509233038 78 295 5.0 16.0 0.00 0.01 0.01 44 1005.7
20260509231534 80 311 0.0 6.0 0.00 0.01 0.01 38 1004.5
20260509230037 81 264 2.0 7.0 0.00 0.01 0.01 36 1004.6
20260509224525 82 288 3.0 8.0 0.00 0.07 0.01 35 1004.6
20260509223021 83 266 4.0 12.0 0.00 0.07 0.01 35 1004.7
20260509221517 83 238 7.0 13.0 0.00 0.07 0.01 32 1004.7
20260509220012 84 240 3.0 9.0 0.00 0.07 0.01 34 1004.8
20260509214510 83 247 3.0 10.0 0.00 0.07 0.01 34 1004.8
20260509213010 83 244 4.0 10.0 0.00 0.07 0.01 35 1004.8
20260509211503 82 282 3.0 10.0 0.00 0.07 0.01 37 1004.9
20260509210104 83 239 3.0 9.0 0.00 0.07 0.01 35 1005.1
20260509204556 84 277 3.0 7.0 0.00 0.07 0.01 37 1005.3
20260509203053 83 251 6.0 12.0 0.00 0.07 0.01 35 1005.4
20260509201553 83 277 4.0 10.0 0.00 0.07 0.01 36 1005.6
20260509200052 82 226 3.0 9.0 0.00 0.07 0.01 37 1005.8
20260509194555 82 250 3.0 9.0 0.00 0.07 0.01 39 1005.9
20260509193045 81 296 2.0 10.0 0.00 0.07 0.01 40 1006.2
20260509191542 80 302 5.0 11.0 0.00 0.07 0.01 39 1006.3
20260509190040 80 275 3.0 7.0 0.00 0.07 0.01 42 1006.5
20260509184536 79 326 2.0 9.0 0.00 0.07 0.01 42 1006.6
20260509183036 78 244 1.0 10.0 0.00 0.07 0.01 47 1006.6
20260509181531 77 241 2.0 8.0 0.00 0.07 0.01 48 1006.7
20260509180027 76 265 3.0 6.0 0.00 0.07 0.01 54 1006.8
20260509174524 75 241 4.0 10.0 0.00 0.07 0.01 53 1006.9
20260509173029 75 257 4.0 10.0 0.00 0.07 0.01 57 1007.2
20260509171517 74 240 4.0 8.0 0.00 0.07 0.01 61 1007.5
20260509170016 72 274 5.0 9.0 0.00 0.07 0.01 64 1007.5
20260509164512 71 288 4.0 9.0 0.00 0.07 0.01 68 1007.5